Regional Weather Roundup
Issued by NWS

Home | Current Version | Previous Version | Text Only | Print | Product List | Glossary On
Versions: 1 2 3 4 5 6 7 8 9 10 11 12 13 14 15 16 17 18 19 20 21 22 23 24 25 26 27 28 29 30 31 32 33 34 35 36 37 38 39 40 41 42 43 44 45 46 47 48 49 50
000
ASUS44 KMEG 232210
RWRTN
TENNESSEE HOURLY STATE WEATHER ROUNDUP
NATIONAL WEATHER SERVICE MEMPHIS TN
400 PM CST MON JAN 23 2017

TNZ002-004-019-021-049-052-054-088>092-232300-
WEST TENNESSEE

CITY           SKY/WX    TMP DP  RH WIND       PRES   REMARKS
MEMPHIS INTL   CLOUDY    49  38  65 NW9       29.82R
NWS MEMPHIS      N/A     49 N/A N/A MISG        N/A
JACKSON        CLOUDY    48  39  71 NW13      29.80S
DYERSBURG      CLOUDY    46  36  66 N8        29.81R
UNION CITY     CLOUDY    45  37  76 NW12G18   29.79R
PARIS          CLOUDY    43  36  75 CALM      29.77S
HUNTINGDON     CLOUDY    46  39  76 W9        29.78R
$$

TNZ008-025-027-028-033-062-065-066-232300-
NORTH MIDDLE TENNESSEE

CITY           SKY/WX    TMP DP  RH WIND       PRES   REMARKS
NASHVILLE      CLOUDY    47  38  71 NW15G21   29.72R
PORTLAND       CLOUDY    45  39  81 NW10G24   29.70R
CLARKSVILLE    CLOUDY    45  36  70 NW14      29.74R
SMYRNA         CLOUDY    47  39  74 NW14      29.72R
GALLATIN       CLOUDY    46  39  76 NW10G22   29.72R
CROSSVILLE     CLOUDY    44  42  93 NW15G22   29.58R FOG
$$

TNZ061-075-076-078-094-096-097-232300-
SOUTH MIDDLE TENNESSEE

CITY           SKY/WX    TMP DP  RH WIND       PRES   REMARKS
TULLAHOMA      CLOUDY    45  41  87 NW13      29.68R
WINCHESTER     CLOUDY    46  43  87 NW9       29.66R
MCMINNVILLE    PTSUNNY   45  43  93 NW7         N/A
COLUMBIA       SUNNY     54  43  66 NW10      29.70R
SHELBYVILLE    CLOUDY    48  43  81 NW13      29.71R
$$

TNZ017-018-042-046-047-232300-
NORTHEAST TENNESSEE

CITY           SKY/WX    TMP DP  RH WIND       PRES   REMARKS
TRI CITIES     LGT RAIN  51  49  92 W6        29.42R FOG
ELIZABETHTON   LGT RAIN  50  48  93 SW6G13    29.40R VSB 1
$$

TNZ012-013-036-069-073-074-232300-
CENTRAL EAST TENNESSEE

CITY           SKY/WX    TMP DP  RH WIND       PRES   REMARKS
KNOXVILLE      CLOUDY    54  44  69 NW14G28   29.50R
OAK RIDGE      CLOUDY    54  44  69 NW10G17   29.53R
GATLINBURG     CLOUDY    52  46  82 W9        29.50R
MORRISTOWN     CLOUDY    52  46  82 NW14G20   29.46R
JACKSBORO      CLOUDY    50  46  87 VRB3G18   29.55R FOG
$$

TNZ083-085-099-232300-
SOUTHEAST TENNESSEE

CITY           SKY/WX    TMP DP  RH WIND       PRES   REMARKS
CHATTANOOGA    PTSUNNY   53  42  66 NW13      29.60R
$$

SKY/WX REPORTED AS FAIR MEANS FEW OR NO CLOUDS BELOW
12 THOUSAND FEET.




USA.gov is the U.S. government's official web portal to all federal, state and local government web resources and services.